TimeCST,TemperatureF,Dew PointF,Humidity,Sea Level PressureIn,VisibilityMPH,Wind Direction,Wind SpeedMPH,Gust SpeedMPH,PrecipitationIn,Events,Conditions,WindDirDegrees,DateUTC
12:56 AM,45.0,28.9,53,30.34,10.0,Calm,Calm,-,N/A,,Clear,0,2012-01-31 06:56:00
1:56 AM,46.9,26.1,44,30.34,10.0,SE,5.8,-,N/A,,Clear,140,2012-01-31 07:56:00
2:56 AM,45.0,28.0,52,30.32,10.0,Calm,Calm,-,N/A,,Clear,0,2012-01-31 08:56:00
3:56 AM,44.1,28.9,55,30.32,10.0,Calm,Calm,-,N/A,,Clear,0,2012-01-31 09:56:00
4:56 AM,44.1,28.0,53,30.34,10.0,Calm,Calm,-,N/A,,Clear,0,2012-01-31 10:56:00
5:56 AM,43.0,28.9,58,30.33,10.0,East,3.5,-,N/A,,Clear,100,2012-01-31 11:56:00
6:56 AM,44.1,30.0,58,30.33,10.0,SE,3.5,-,N/A,,Clear,130,2012-01-31 12:56:00
7:56 AM,46.0,36.0,68,30.34,10.0,ESE,3.5,-,N/A,,Clear,120,2012-01-31 13:56:00
8:56 AM,54.0,42.1,64,30.36,10.0,SSE,6.9,-,N/A,,Clear,150,2012-01-31 14:56:00
9:56 AM,61.0,46.0,58,30.35,10.0,SSE,10.4,-,N/A,,Clear,160,2012-01-31 15:56:00
10:56 AM,63.0,46.9,56,30.34,10.0,SSE,9.2,17.3,N/A,,Clear,160,2012-01-31 16:56:00
11:56 AM,68.0,48.0,49,30.31,10.0,SSE,10.4,17.3,N/A,,Clear,160,2012-01-31 17:56:00
12:56 PM,69.1,46.9,45,30.27,10.0,South,13.8,18.4,N/A,,Clear,170,2012-01-31 18:56:00
1:56 PM,71.1,48.0,44,30.24,10.0,South,9.2,-,N/A,,Clear,170,2012-01-31 19:56:00
2:56 PM,72.0,48.9,44,30.22,10.0,SSE,8.1,-,N/A,,Clear,160,2012-01-31 20:56:00
3:56 PM,70.0,51.1,51,30.22,10.0,SSE,6.9,-,N/A,,Partly Cloudy,150,2012-01-31 21:56:00
4:56 PM,69.1,52.0,54,30.22,10.0,SSE,6.9,-,N/A,,Clear,150,2012-01-31 22:56:00
5:56 PM,64.9,52.0,63,30.24,10.0,South,3.5,-,N/A,,Clear,170,2012-01-31 23:56:00
6:56 PM,62.1,52.0,70,30.25,10.0,South,6.9,-,N/A,,Clear,190,2012-02-01 00:56:00
7:56 PM,61.0,52.0,72,30.27,10.0,South,6.9,-,N/A,,Clear,190,2012-02-01 01:56:00
8:56 PM,59.0,50.0,72,30.26,10.0,South,5.8,-,N/A,,Clear,180,2012-02-01 02:56:00
9:56 PM,57.0,48.9,74,30.26,10.0,SSE,3.5,-,N/A,,Clear,160,2012-02-01 03:56:00
10:56 PM,57.0,48.9,74,30.27,10.0,South,3.5,-,N/A,,Clear,180,2012-02-01 04:56:00
11:56 PM,55.9,50.0,80,30.26,10.0,SSE,3.5,-,N/A,,Clear,160,2012-02-01 05:56:00